Miscellaneous Local Product
Issued by NWS North Platte, NE

Home | Current Version | Previous Version | Text Only | Print | Product List | Glossary On
Versions: 1 2 3 4 5 6 7 8 9 10 11 12 13 14 15 16 17 18 19 20 21 22 23 24 25 26 27 28 29 30 31 32 33 34 35 36 37 38 39 40 41 42 43 44 45 46 47 48 49 50
000
AXUS43 KLBF 270210
MISLBF


WESTERN AND NORTH CENTRAL NEBRASKA HOURLY WEATHER ROUNDUP
NATIONAL WEATHER SERVICE NORTH PLATTE NE
900 PM CDT SUN JUL 26 2015

***STATIONS NOT REPORTING VARIABLES SUCH AS SKY/WEATHER OR
PRESSURE ARE PROVIDED BY THE NEBRASKA DEPARTMENT OF
ROADS...RAWS...AND APRS NETWORKS...AND ARE NOT UNDER
NATIONAL WEATHER SERVICE QUALITY CONTROL***

...OBSERVATIONS IN AND NEAR THE EASTERN PANHANDLE OF NEBRASKA...

CITY           SKY/WX    TMP DP  RH WIND       PRES   REMARKS
PINE RIDGE     PTCLDY    80  52  37 S21G29    29.86R
CHADRON        CLEAR     81  55  40 S24G33    29.84S
ALLIANCE       PTCLDY    75  56  51 SE16      29.92S
SIDNEY         CLOUDY    69  61  75 SE12      29.98F
BIG SPRINGS      N/A     68  65  90 E5          N/A
$$

...OBSERVATIONS IN NORTH CENTRAL NEBRASKA...

CITY           SKY/WX    TMP DP  RH WIND       PRES   REMARKS
VALENTINE      CLOUDY    74  60  61 E9        29.88S
THEDFORD       DRIZZLE   78  57  47 W14G20    29.96R
AINSWORTH      CLOUDY    73  65  78 E18G28    29.94R THUNDER
O`NEILL        CLOUDY    81  73  78 E5        29.90R THUNDER
ORD            MOCLDY    83  75  77 SE9       29.86R HX  90
BROKEN BOW     CLOUDY    83  76  79 SE3       29.90R HX  91
SPRINGVIEW       N/A     70  65  84 SE5G12      N/A
CHAMBERS         N/A     79  73  81 E3          N/A
EWING            N/A     78  74  89 CALM        N/A
$$

...OBSERVATIONS IN SOUTHWEST NEBRASKA AND FAR NORTHEAST COLORADO...

CITY           SKY/WX    TMP DP  RH WIND       PRES   REMARKS
WRAY           FAIR      72  63  75 CALM      29.96R
HOLYOKE        FAIR      70  63  78 NE9       29.96R
IMPERIAL       LGT RAIN  70  62  76 E21G29    29.91F
OGALLALA       CLOUDY    67  64  87 E14       29.96R
NORTH PLATTE   LGT RAIN  66  62  87 W18G32    30.01R
MCCOOK         TSTM      74  64  71 W30G37    30.03R
LEXINGTON      CLOUDY    85  75  73 SE8       29.89R HX  93
PAXTON           N/A     67  63  87 E7          N/A
BRADY            N/A     76  62  60 SW5G12      N/A
CALLAWAY         N/A     77  67  71 NW18        N/A
$$

...NORTH PLATTE AREA...

CITY           SKY/WX    TMP DP  RH WIND       PRES   REMARKS
AIRPORT        LGT RAIN  66  62  87 W18G32    30.01R
DOWNTOWN         N/A     65  64  97 CALM        N/A
HILLCREST        N/A     68  62  82 NW10        N/A
$$

...SOME WEATHER OBSERVATIONS FROM AROUND THE REGION...

CITY           SKY/WX    TMP DP  RH WIND       PRES   REMARKS
DENVER         PTCLDY    75  57  53 SE16      29.98R
LARAMIE        PTCLDY    73  47  39 SE12      30.10S
CHEYENNE       CLEAR     73  53  49 SE15G25   30.06R
SCOTTSBLUFF    PTCLDY    77  58  51 SE15      29.92S
RAPID CITY     CLEAR     79  63  57 SE20      29.81R
PIERRE         PTCLDY    79  67  66 SE16      29.79S
WINNER         FAIR      79  59  50 SW9       29.85R
SIOUX FALLS    CLOUDY    76  69  79 E8        29.88S
OMAHA          MOCLDY    84  77  79 SE7       29.84F HX  94
GRAND ISLAND   PTCLDY    82  77  84 E7        29.87F HX  90
KANSAS CITY    PTCLDY    85  79  82 CALM      29.87S HX  98
WICHITA        CLEAR     88  70  55 SE10      29.86S HX  93
HAYS           CLEAR     88  66  48 SE9       29.87R HX  90
LIBERAL        CLEAR     90  63  40 S9        29.87R HX  90
GOODLAND       CLOUDY    67  64  90 SE6       29.97F
$$



USA.gov is the U.S. government's official web portal to all federal, state and local government web resources and services.